Tracking 33470 objects as of 12-Mar-2026
HD Live streaming from Space Station
objects crossing your sky now

ATLAS CENTAUR 2 DEB

Track ATLAS CENTAUR 2 DEB now!
10-day predictions


NORAD ID: 3741
Int'l Code: 1963-047L
Perigee: 578.2 km
Apogee: 919.0 km
Inclination: 29.9 °
Period: 99.6 minutes
Semi major axis: 7119 km
RCS: 0.0775 m2 (small)
Launch date: November 27, 1963
Source: United States (US)
Launch site: AIR FORCE EASTERN TEST RANGE (AFETR)

Note: This is SATELLITE DEBRIS
Your satellite tracking list
Your tracking list is empty




NASA's NSSDC Master Catalog

Two Line Element Set (TLE):
1 03741U 63047L   26069.55649690  .00014002  00000-0  27339-2 0  9995
2 03741  29.8761 237.2433 0239309 123.4374 238.9351 14.45169921898518
Source of the keplerian elements: AFSPC